{"data":{"norad_id":62858,"epoch":"2026-05-25T03:44:58.920000Z","epoch_age_seconds":58080,"freshness":"FRESH","line1":"1 62858U 25022E   26145.15623750  .00023802  00000+0  71388-3 0  9991","line2":"2 62858  53.1608 133.2914 0000944  58.1249 301.9845 15.34376878 73623","mean_motion":15.34376878,"eccentricity":9.44e-5,"inclination_deg":53.1608,"raan_deg":133.2914,"arg_perigee_deg":58.1249,"mean_anomaly_deg":301.9845,"bstar":0.00071388,"rev_number":7362,"period_min":93.849172302243,"perigee_km":462.1261827206,"apogee_km":463.41774633311,"semimajor_km":6840.9089645269,"source":"CELESTRAK","updated_at":"2026-05-25T13:38:19.783671Z"}}